Weather History for KPGD - February, 2013

Change the Weather History Date:

Sunday, February 3, 2013

  Actual Average Record
Temperature  
Mean Temperature 60 °F -  
Max Temperature 73 °F 72 °F 84 °F (2014)
Min Temperature 46 °F 50 °F 43 °F (2009)
Degree Days  
Heating Degree Days 6    
Growing Degree Days 10 (Base 50)    
Moisture  
Dew Point 43 °F    
Average Humidity 59    
Maximum Humidity 92    
Minimum Humidity 24    
Precipitation  
Precipitation 0.00 in - - ()
Sea Level Pressure  
Sea Level Pressure 30.17 in    
Wind  
Wind Speed 7 mph (North)    
Max Wind Speed 15 mph    
Max Gust Speed 18 mph    
Visibility 10 miles    
Events      
Averages and records for this station are not official NWS values.
T = Trace of Precipitation, MM = Missing Value Source: NWS Daily Summary

Daily Weather History Graph

Daily Weather History Graph

Search for Another Location

Airport or City:

Trip Planner

Search our weather history database for the weather conditions in past years. The results will help you decide how hot, cold, wet, or windy it might be!

Date:

Astronomy

Feb. 03, 2013 Rise Set
Actual Time 7:12 AM EST 6:11 PM EST
Civil Twilight 6:48 AM EST 6:35 PM EST
Nautical Twilight 6:20 AM EST 7:03 PM EST
Astronomical Twilight 5:52 AM EST 7:31 PM EST
Moon 12:37 AM EST (2/3) 11:51 AM EST (2/3)
Length of Visible Light 11h 47m
Length of Day
10h 59m
Waning Gibbous, 49% of the Moon is Illuminated
Feb 3
Waning Gibbous
Feb 10
New
Feb 17
First Quarter
Feb 25
Full
Mar 4
Last Quarter

Hourly Weather History & Observations

Time (EST) Temp. Dew Point Humidity Pressure Visibility Wind Dir Wind Speed Gust Speed Precip Events Conditions
12:53 AM 50.0 °F 45.0 °F 83% 30.18 in 10.0 mi North 4.6 mph - N/A   Clear
1:53 AM 53.1 °F 45.0 °F 74% 30.17 in 10.0 mi North 9.2 mph - N/A   Clear
2:53 AM 52.0 °F 43.0 °F 71% 30.17 in 10.0 mi North 8.1 mph - N/A   Clear
3:53 AM 51.1 °F 41.0 °F 68% 30.16 in 10.0 mi North 6.9 mph - N/A   Clear
4:53 AM 48.9 °F 41.0 °F 74% 30.16 in 10.0 mi North 3.5 mph - N/A   Partly Cloudy
5:53 AM 48.0 °F 41.0 °F 77% 30.18 in 10.0 mi NNW 5.8 mph - N/A   Scattered Clouds
6:53 AM 46.9 °F 39.0 °F 74% 30.20 in 10.0 mi NNW 5.8 mph - N/A   Clear
7:53 AM 51.1 °F 43.0 °F 74% 30.23 in 10.0 mi North 6.9 mph - N/A   Clear
8:53 AM 55.9 °F 41.0 °F 57% 30.25 in 10.0 mi North 8.1 mph - N/A   Clear
9:53 AM 62.1 °F 35.1 °F 37% 30.25 in 10.0 mi North 12.7 mph - N/A   Clear
10:53 AM 66.9 °F 34.0 °F 30% 30.24 in 10.0 mi NNE 15.0 mph - N/A   Clear
11:53 AM 70.0 °F 34.0 °F 27% 30.20 in 10.0 mi North 8.1 mph - N/A   Clear
12:53 PM 72.0 °F 33.1 °F 24% 30.18 in 10.0 mi NNE 10.4 mph 16.1 mph N/A   Clear
1:53 PM 72.0 °F 37.9 °F 29% 30.15 in 10.0 mi NNE 9.2 mph 18.4 mph N/A   Clear
2:53 PM 72.0 °F 42.1 °F 34% 30.13 in 10.0 mi North 6.9 mph - N/A   Clear
3:53 PM 73.0 °F 45.0 °F 37% 30.12 in 10.0 mi NNW 10.4 mph - N/A   Clear
4:53 PM 72.0 °F 45.0 °F 38% 30.13 in 10.0 mi North 8.1 mph - N/A   Clear
5:53 PM 68.0 °F 45.0 °F 43% 30.12 in 10.0 mi NNW 5.8 mph - N/A   Clear
6:53 PM 63.0 °F 46.9 °F 56% 30.13 in 10.0 mi NNW 8.1 mph - N/A   Clear
7:53 PM 60.1 °F 48.0 °F 64% 30.15 in 10.0 mi NW 4.6 mph - N/A   Clear
8:53 PM 57.0 °F 50.0 °F 77% 30.16 in 10.0 mi NW 5.8 mph - N/A   Clear
9:53 PM 55.0 °F 51.1 °F 86% 30.17 in 10.0 mi NW 3.5 mph - N/A   Clear
10:53 PM 54.0 °F 51.1 °F 90% 30.17 in 10.0 mi NW 4.6 mph - N/A   Clear
11:53 PM 51.1 °F 48.9 °F 92% 30.16 in 10.0 mi Calm Calm - N/A   Clear